Location: *
(58.7167°N, 26.1833°E)
Time: 11:05:35
(UTC+00:00)

Cosmos 1544 Rocket - Pass Details

Date: 25 August 2019
Orbit: 605 x 630 km, 82.5° (Epoch: 18 September)

Event Time Altitude Azimuth Distance (km) Brightness Sun altitude
Exits shadow 21:42:45 51° 152° (SSE) 788 3.7 -20.3°
Maximum altitude 21:43:38 65° 99° (E) 692 3.6 -20.3°
Drops below altitude 10° 21:48:04 10° 18° (NNE) 2,019 7.1 -20.4°
Sets 21:50:20 0° 15° (NNE) 2,934 8.2 -20.5°
